Custer, SD

8:32 PM MDT on May 23, 2017 (GMT -0600)
Custer County

Weather History for KCUT - May, 2014

Change the Weather History Date:

Friday, May 30, 2014

  Actual Average Record
Temperature  
Mean Temperature 58 °F 52 °F  
Max Temperature 63 °F 64 °F 81 °F (1958)
Min Temperature 53 °F 41 °F 25 °F (1947)
Degree Days  
Heating Degree Days 7 13  
Month to date heating degree days 472 506  
Since 1 July heating degree days 8153 8156  
Cooling Degree Days 0 0  
Month to date cooling degree days 4 0  
Year to date cooling degree days 4 0  
Growing Degree Days 8 (Base 50)    
Moisture  
Dew Point 52 °F    
Average Humidity 80    
Maximum Humidity 93    
Minimum Humidity 67    
Precipitation  
Precipitation 0.18 in 0.12 in 2.53 in (1943)
Month to date precipitation 2.78 3.00  
Year to date precipitation 7.38 6.99  
Sea Level Pressure  
Sea Level Pressure 30.09 in    
Wind  
Wind Speed 5 mph (NNE)    
Max Wind Speed 12 mph    
Max Gust Speed 16 mph    
Visibility 9 miles    
Events Rain , Thunderstorm    
T = Trace of Precipitation, MM = Missing Value Source: NWS Daily Summary

Daily Weather History Graph

Daily Weather History Graph

Search for Another Location

Airport or City:

Trip Planner

Search our weather history database for the weather conditions in past years. The results will help you decide how hot, cold, wet, or windy it might be!

Date:

Astronomy

May. 30, 2014 Rise Set
Actual Time 5:16 AM MDT 8:27 PM MDT
Civil Twilight 4:41 AM MDT 9:02 PM MDT
Nautical Twilight 3:56 AM MDT 9:48 PM MDT
Astronomical Twilight 3:02 AM MDT 10:42 PM MDT
Moon 7:04 AM MDT (5/30) 10:04 PM MDT (5/30)
Length of Visible Light 16h 21m
Length of Day
15h 11m
Waxing Crescent, 4% of the Moon is Illuminated
May 30
Waxing Crescent
Jun 5
First Quarter
Jun 12
Full
Jun 19
Last Quarter
Jun 27
New

Hourly Weather History & Observations

Time (MDT) Temp. Dew Point Humidity Pressure Visibility Wind Dir Wind Speed Gust Speed Precip Events Conditions
12:08 AM 59.0 °F 55.0 °F 87% 30.12 in 10.0 mi ENE 8.1 mph - 0.00 in Rain , Thunderstorm Light Rain
12:23 AM 59.0 °F 55.0 °F 87% 30.12 in 10.0 mi NNE 4.6 mph - 0.00 in Rain Light Rain
12:35 AM 60.1 °F 54.0 °F 80% 30.13 in 10.0 mi ENE 5.8 mph - 0.01 in Rain , Thunderstorm Light Rain
12:50 AM 59.0 °F 53.6 °F 82% 30.12 in 10.0 mi NE 4.6 mph - 0.01 in   Overcast
12:53 AM 59.0 °F 54.0 °F 83% 29.92 in 10.0 mi Calm Calm - 0.01 in   Mostly Cloudy
1:53 AM 57.9 °F 55.0 °F 90% 29.92 in 10.0 mi NE 3.5 mph - N/A   Clear
2:53 AM 57.0 °F 55.0 °F 93% 29.92 in 10.0 mi NE 3.5 mph - N/A   Mostly Cloudy
3:53 AM 57.0 °F 54.0 °F 89% 29.92 in 10.0 mi Calm Calm - N/A   Mostly Cloudy
4:53 AM 55.9 °F 53.1 °F 90% 29.95 in 10.0 mi NW 4.6 mph - N/A   Overcast
5:53 AM 55.9 °F 52.0 °F 87% 29.96 in 10.0 mi Calm Calm - 0.00 in   Overcast
6:53 AM 54.0 °F 50.0 °F 86% 29.98 in 10.0 mi NNW 4.6 mph - N/A   Mostly Cloudy
7:53 AM 55.9 °F 51.1 °F 84% 30.00 in 10.0 mi NNW 4.6 mph - 0.00 in Rain Light Rain
8:53 AM 60.1 °F 53.1 °F 78% 30.01 in 10.0 mi West 3.5 mph - 0.01 in   Overcast
9:35 AM 62.1 °F 53.1 °F 72% 30.19 in 10.0 mi Calm Calm - N/A   Mostly Cloudy
9:53 AM 61.0 °F 53.1 °F 75% 30.02 in 10.0 mi Calm Calm - N/A   Overcast
10:30 AM 57.0 °F 55.0 °F 93% 30.21 in 10.0 mi South 8.1 mph - 0.02 in Rain Light Rain
10:51 AM 57.2 °F 55.4 °F 94% 30.20 in 3.0 mi NNE 4.6 mph - 0.03 in Rain Rain
10:53 AM 57.0 °F 55.0 °F 93% 30.04 in 2.5 mi Variable 4.6 mph - 0.04 in Rain , Thunderstorm Thunderstorms and Rain
10:59 AM 57.0 °F 55.0 °F 93% 30.21 in 3.0 mi West 4.6 mph - 0.01 in Rain , Thunderstorm Light Thunderstorms and Rain
11:15 AM 57.0 °F 55.0 °F 93% 30.19 in 3.0 mi NNE 6.9 mph - 0.03 in Rain Rain
11:19 AM 57.0 °F 55.9 °F 96% 30.19 in 2.5 mi North 6.9 mph - 0.05 in Rain Rain
11:30 AM 60.1 °F 57.0 °F 90% 30.19 in 4.0 mi Variable 3.5 mph - 0.06 in Rain Light Rain
12:53 PM 61.0 °F 53.1 °F 75% 30.04 in 10.0 mi West 6.9 mph - N/A   Overcast
1:45 PM 60.1 °F 52.0 °F 75% 30.20 in 10.0 mi Variable 3.5 mph - 0.00 in Rain , Thunderstorm Light Rain
1:53 PM 60.1 °F 52.0 °F 75% 30.06 in 10.0 mi NNE 3.5 mph - 0.00 in Thunderstorm Overcast
2:37 PM 60.1 °F 51.1 °F 72% 30.20 in 10.0 mi North 9.2 mph - 0.00 in Rain Light Rain
3:22 PM 55.9 °F 50.0 °F 80% 30.22 in 2.5 mi NNE 4.6 mph - 0.03 in Rain Rain
3:29 PM 55.0 °F 51.1 °F 86% 30.20 in 3.0 mi NE 9.2 mph - 0.06 in Rain Rain
4:53 PM 57.9 °F 48.0 °F 70% 30.05 in 10.0 mi North 6.9 mph - 0.00 in   Overcast
5:53 PM 57.0 °F 48.0 °F 72% 30.04 in 10.0 mi North 4.6 mph - N/A   Mostly Cloudy
6:53 PM 57.9 °F 48.9 °F 72% 30.05 in 10.0 mi Calm Calm - N/A   Overcast
7:53 PM 55.0 °F 50.0 °F 83% 30.04 in 10.0 mi ENE 8.1 mph - 0.00 in Rain Light Rain
8:53 PM 54.0 °F 48.0 °F 80% 30.04 in 10.0 mi NNE 8.1 mph - 0.00 in   Overcast
9:53 PM 54.0 °F 48.0 °F 80% 30.05 in 10.0 mi NE 5.8 mph - N/A   Overcast
10:45 PM 54.0 °F 50.0 °F 86% 30.19 in 10.0 mi ENE 9.2 mph - 0.00 in Rain Light Rain
10:53 PM 54.0 °F 51.1 °F 90% 30.06 in 10.0 mi ENE 8.1 mph - 0.00 in Rain Light Rain
11:00 PM 54.0 °F 51.1 °F 90% 30.19 in 10.0 mi ENE 5.8 mph - 0.00 in Rain Light Rain
11:23 PM 54.0 °F 52.0 °F 93% 30.18 in 10.0 mi NNE 3.5 mph - 0.00 in   Overcast
11:53 PM 54.0 °F 52.0 °F 93% 30.03 in 10.0 mi NNE 4.6 mph - 0.00 in   Overcast